Location: Doussal
(55.6167°N, 116.8333°W)
Time: 04:24:05
(UTC+00:00)

METEOR M2 - Pass Details

Date: 16 December 2023
Orbit: 818 x 826 km, 98.4° (Epoch: 25 February)

Event Time Altitude Azimuth Distance (km) Brightness Sun altitude
Rises 14:41:25 0° 13° (NNE) 3,373 ? -11.3°
Reaches altitude 10° 14:43:50 10° 9° (N) 2,435 ? -11.0°
Maximum altitude 14:49:01 50° 296° (WNW) 1,037 ? -10.3°
Drops below altitude 10° 14:54:10 10° 222° (SW) 2,415 ? -9.7°
Sets 14:56:33 0° 217° (SW) 3,343 ? -9.4°
